Flag for Norway Weather past 2 weeks in Hammerfest, Norway

Now
45 °F

Scattered showers. Partly sunny.


Feels Like: 40 °F
Forecast: 42 / 46 °F
Wind: 8 mph from North

Location: Hammerfest

Current Time: Sep 1, 2015 at 8:01:18 AM

Latest Report: Sep 1, 2015 at 6:50 AM


Visibility: N/A

Pressure: 29.92 "Hg

Humidity: 87%

Dew point: 41 °F

Location of HammerfestLocation

Historic Weather in Hammerfest — Graph

°F

Hammerfest temperature yesterday

Maximum temperature yesterday: 54 °F (at 12:50 AM)
Minimum temperature yesterday: 46 °F (at 9:50 PM)
Average temperature yesterday: 51 °F

Past Weeks' High & Low Weather Summary

 TemperatureHumidityPressure
High66 °F (Aug 17, 12:50 PM)100% (Aug 18, 7:50 PM)30.30 "Hg (Aug 18, 7:50 PM)
Low45 °F (Aug 26, 11:50 PM)49% (Aug 17, 2:50 PM)29.56 "Hg (Aug 29, 3:50 AM)
Average55 °F79%30.02 "Hg
* Reported Aug 17 6:50 AM — Sep 1 6:50 AM, Hammerfest, Weather by CustomWeather, © 2015

Note: Actual official high and low records may vary slightly from our data, if they occured in-between our weather recording intervals... More about our weather records

Advertising

Hammerfest weather history for previous 24 hours

 ConditionsComfort  
Time TempWeatherWind HumidityBarometerVisibility
6:50 AM
Tue, Sep 1
45 °FScattered showers. Partly sunny.8 mph87%29.92 "HgN/A
4:50 AM45 °FPassing clouds.9 mph93%29.89 "HgN/A
3:50 AM46 °FPartly cloudy.8 mph93%29.89 "HgN/A
2:50 AM46 °FPartly cloudy.6 mph93%29.86 "Hg3 mi
1:50 AM46 °FPassing clouds.6 mph93%29.86 "HgN/A
12:50 AM46 °FPartly cloudy.6 mph93%29.86 "HgN/A
10:50 PM
Mon, Aug 31
46 °FDrizzle. Overcast.13 mph93%29.83 "HgN/A
9:50 PM46 °FPartly cloudy.10 mph100%29.80 "Hg3 mi
8:50 PM48 °FBroken clouds.12 mph94%29.77 "HgN/A
7:50 PM48 °FDrizzle. Broken clouds.18 mph100%29.77 "Hg5 mi
6:50 PM48 °FDrizzle. Low clouds.16 mph100%29.77 "Hg6 mi
5:50 PM52 °FScattered showers. Broken clouds.23 mph82%29.74 "HgN/A
4:50 PM52 °FBroken clouds.21 mph82%29.74 "HgN/A
3:50 PM50 °FBroken clouds.10 mph94%29.74 "HgN/A
2:50 PM50 °FSprinkles. Broken clouds.15 mph88%29.74 "HgN/A
1:50 PM52 °FScattered showers. Partly sunny.14 mph88%29.71 "HgN/A
12:50 PM52 °FScattered showers. Partly sunny.12 mph88%29.71 "HgN/A
11:50 AM52 °FScattered showers. Broken clouds.13 mph94%29.68 "HgN/A
10:50 AM52 °FDrizzle. Broken clouds.9 mph94%29.68 "HgN/A
9:50 AM52 °FDrizzle. Broken clouds.10 mph94%29.68 "HgN/A
8:50 AM54 °FScattered showers. Broken clouds.5 mph82%29.65 "HgN/A
Weather by CustomWeather, © 2015

See weather overviewHow to use our weather pages